Zurück zum Katalog

ONEWEB-0541

AktivKommunikationPO
NORAD 55142·PAYLOAD·🇬🇧 United Kingdom

Gestartet Jan 10, 2023 von Cape Canaveral Space Force Station

Loading…

Nächste Überflüge (nächste 24 Stunden)

TLE

AktuellSource: CelesTrak SupGP

Epoche: Sep 14, 2026, 18:37 UTC

1 55142C 23004C   26257.77588380  .00002488  00000+0  70286-2 0  2577
2 55142  87.8971   3.2514 0001587 104.6249 355.3128 13.11415610    12

Verfolge ONEWEB-0541 in Echtzeit mit AllMySat

Download on the App Store